FW8300 Weather Reports


time (UTC)temp
F
wind
direction
speed
knots
gust
knots
rain 1hr
in
rain 24hr
in
rain mn
in
humidity
%
barometer
mb
20260906204557 94 120 12.2 20.9 0.00 0.00 0.00 34 1011.5
20260906203055 93 141 14.8 22.6 0.00 0.00 0.00 34 1011.7
20260906201555 93 134 15.6 23.5 0.00 0.00 0.00 34 1011.9
20260906200050 92 108 19.1 26.1 0.00 0.00 0.00 34 1011.9
20260906194602 92 121 18.2 25.2 0.00 0.00 0.00 34 1012.1
20260906193057 91 123 17.4 23.5 0.00 0.00 0.00 35 1012.4
20260906191554 91 128 13.0 21.7 0.00 0.00 0.00 35 1012.6
20260906190054 91 133 10.4 20.9 0.00 0.00 0.00 34 1012.9
20260906184549 91 148 12.2 21.7 0.00 0.00 0.00 34 1012.9
20260906183109 91 105 10.4 15.6 0.00 0.00 0.00 35 1013.2
20260906181602 90 150 11.3 18.2 0.00 0.00 0.00 36 1013.6
20260906180114 89 135 11.3 18.2 0.00 0.00 0.00 36 1013.9
20260906174617 89 148 9.6 18.2 0.00 0.00 0.00 36 1014.1
20260906173057 89 190 9.6 18.2 0.00 0.00 0.00 36 1014.3
20260906171611 88 159 13.0 20.9 0.00 0.00 0.00 37 1014.7
20260906170105 88 152 9.6 16.5 0.00 0.00 0.00 36 1014.6
20260906164557 88 198 7.8 16.5 0.00 0.00 0.00 37 1014.7
20260906163058 87 169 10.4 18.2 0.00 0.00 0.00 38 1015.0
20260906161621 86 203 8.7 16.5 0.00 0.00 0.00 39 1015.1
20260906160052 86 195 9.6 14.8 0.00 0.00 0.00 39 1015.1
20260906154604 85 162 8.7 14.8 0.00 0.00 0.00 41 1015.0
20260906153111 84 181 6.1 10.4 0.00 0.00 0.00 46 1015.1
20260906151552 82 197 4.3 8.7 0.00 0.00 0.00 52 1015.2
20260906150054 81 167 5.2 8.7 0.00 0.00 0.00 55 1015.4
20260906144549 79 198 5.2 8.7 0.00 0.00 0.00 57 1015.4
20260906143053 78 196 3.5 6.1 0.00 0.00 0.00 61 1015.6
20260906141619 75 144 2.6 5.2 0.00 0.00 0.00 69 1015.3
20260906140054 71 224 1.7 3.5 0.00 0.00 0.00 76 1015.3
20260906134549 67 0 0.0 1.7 0.00 0.00 0.00 83 1015.3
20260906133109 66 254 1.7 2.6 0.00 0.00 0.00 82 1015.2
20260906131607 65 0 0.0 2.6 0.00 0.00 0.00 84 1015.3
20260906130059 63 200 0.0 2.6 0.00 0.00 0.00 89 1015.2
20260906124601 61 253 1.7 3.5 0.00 0.00 0.00 88 1014.9
20260906123050 63 259 2.6 6.1 0.00 0.00 0.00 83 1014.7
20260906121607 62 240 2.6 4.3 0.00 0.00 0.00 88 1014.7
20260906120104 63 217 1.7 3.5 0.00 0.00 0.00 87 1014.6
20260906114552 63 269 3.5 5.2 0.00 0.00 0.00 85 1014.5
20260906113047 62 278 0.9 5.2 0.00 0.00 0.00 88 1014.5
20260906111553 63 277 1.7 5.2 0.00 0.00 0.00 86 1014.6
20260906110057 62 268 2.6 3.5 0.00 0.00 0.00 87 1014.6
20260906104552 63 274 1.7 3.5 0.00 0.00 0.00 84 1014.4
20260906103057 64 259 0.9 3.5 0.00 0.00 0.00 83 1014.4
20260906101607 64 269 3.5 6.1 0.00 0.00 0.00 84 1014.2
20260906100058 66 284 3.5 6.1 0.00 0.00 0.00 82 1014.1
20260906094559 66 277 3.5 6.1 0.00 0.00 0.00 83 1014.1
20260906093051 67 266 6.1 7.8 0.00 0.00 0.00 80 1014.0
20260906091556 67 0 0.9 1.7 0.00 0.00 0.00 81 1014.1
20260906090058 67 259 1.7 3.5 0.00 0.00 0.00 81 1014.2
20260906084601 68 0 0.0 2.6 0.00 0.00 0.00 80 1014.1
20260906083103 68 202 2.6 4.3 0.00 0.00 0.00 80 1014.1
20260906081548 68 219 2.6 4.3 0.00 0.00 0.00 80 1014.0
20260906080058 69 0 0.0 1.7 0.00 0.00 0.00 80 1013.9
20260906074557 70 0 0.9 3.5 0.00 0.00 0.00 78 1013.8
20260906073049 71 188 0.9 2.6 0.00 0.00 0.00 75 1013.9
20260906071557 72 0 0.9 6.1 0.00 0.00 0.00 73 1013.8
20260906070059 72 269 3.5 6.1 0.00 0.00 0.00 73 1013.8
20260906064556 73 292 6.1 7.8 0.00 0.00 0.00 70 1013.7
20260906063052 72 290 2.6 5.2 0.00 0.00 0.00 72 1013.7
20260906061602 73 264 0.9 5.2 0.00 0.00 0.00 70 1013.7
20260906060133 74 282 2.6 5.2 0.00 0.00 0.00 69 1013.5
20260906054608 73 288 2.6 7.8 0.00 0.00 0.00 70 1013.6
20260906053050 72 279 5.2 7.0 0.00 0.00 0.00 73 1013.7
20260906051558 72 209 0.9 2.6 0.00 0.00 0.00 74 1013.9
20260906050054 73 174 2.6 4.3 0.00 0.00 0.00 71 1013.7
20260906044555 74 246 0.9 1.7 0.00 0.00 0.00 69 1013.3
20260906043051 76 254 0.9 3.5 0.00 0.00 0.00 65 1013.6
20260906041559 77 279 3.5 6.1 0.00 0.00 0.00 62 1013.6
20260906040059 77 266 3.5 7.0 0.00 0.00 0.00 62 1013.7
20260906034602 78 286 4.3 6.1 0.00 0.00 0.00 60 1013.7
20260906033047 79 229 0.9 3.5 0.00 0.00 0.00 59 1013.6
20260906031556 80 243 2.6 5.2 0.00 0.00 0.00 58 1013.4
20260906030057 82 204 3.5 7.0 0.00 0.00 0.00 55 1013.4
20260906024554 82 148 4.3 7.8 0.00 0.00 0.00 54 1013.3
20260906023058 83 157 4.3 8.7 0.00 0.00 0.00 53 1013.0
20260906021601 82 162 7.0 10.4 0.00 0.00 0.00 53 1012.7
20260906020055 83 238 2.6 6.1 0.00 0.00 0.00 49 1012.1
20260906014552 83 258 1.7 5.2 0.00 0.00 0.00 46 1011.8
20260906013048 83 196 5.2 7.0 0.00 0.00 0.00 46 1011.8
20260906011557 82 327 1.7 3.5 0.00 0.00 0.00 52 1011.6
20260906010136 83 135 0.0 2.6 0.00 0.00 0.00 55 1011.6
20260906004556 84 309 2.6 7.0 0.00 0.00 0.00 49 1012.1
20260906003055 85 299 3.5 7.0 0.00 0.00 0.00 47 1012.8
20260906001603 84 277 4.3 6.1 0.00 0.00 0.00 48 1012.8
20260906000052 85 257 2.6 4.3 0.00 0.00 0.00 48 1012.2
20260905234548 85 34 2.6 7.8 0.00 0.00 0.00 51 1011.9
20260905233058 86 111 5.2 8.7 0.00 0.00 0.00 48 1011.8
20260905231556 87 81 5.2 7.0 0.00 0.00 0.00 44 1011.7
20260905230048 86 339 6.1 9.6 0.00 0.00 0.00 47 1012.4
20260905224555 85 317 4.3 12.2 0.00 0.00 0.00 49 1012.5
20260905223056 86 263 6.1 8.7 0.00 0.00 0.00 49 1012.4
20260905221559 86 281 2.6 3.5 0.00 0.00 0.00 49 1011.9
20260905220100 86 0 0.0 1.7 0.00 0.00 0.00 50 1012.2
20260905214554 86 0 0.0 5.2 0.00 0.00 0.00 49 1012.1
20260905213053 85 100 5.2 7.0 0.00 0.00 0.00 54 1012.1
20260905211547 84 205 2.6 9.6 0.00 0.00 0.00 56 1012.5
20260905210116 84 90 5.2 7.8 0.00 0.00 0.00 60 1012.3